Weather History for Victoria, TX

Change the Weather History Date:

Thursday, January 2, 2014

  Actual Average Record
Temperature  
Mean Temperature 48 °F 54 °F  
Max Temperature 60 °F 64 °F 82 °F (2006)
Min Temperature 36 °F 43 °F 17 °F (1979)
Degree Days  
Heating Degree Days 17 12  
Month to date heating degree days 26 24  
Since 1 July heating degree days 606 518  
Cooling Degree Days 0 1  
Month to date cooling degree days 0 2  
Year to date cooling degree days 0 2  
Moisture  
Dew Point 34 °F    
Average Humidity 63    
Maximum Humidity 90    
Minimum Humidity 35    
Precipitation  
Precipitation 0.00 in 0.08 in 1.05 in (1966)
Month to date precipitation 0.01 0.16  
Year to date precipitation 0.01 0.16  
Snow  
Snow 0.00 in - - ()
Month to date snowfall 0.0  
Since 1 July snowfall 0.0  
Snow Depth 0.00 in    
Sea Level Pressure  
Sea Level Pressure 30.30 in    
Wind  
Wind Speed 14 mph (North)    
Max Wind Speed 29 mph    
Max Gust Speed 39 mph    
Visibility 10 miles    
Events      
T = Trace of Precipitation, MM = Missing Value Source: NWS Daily Summary

Daily Weather History Graph

Daily Weather History Graph

Search for Another Location

Airport:

Trip Planner

Search our weather history database for the weather conditions in past years. The results will help you decide how hot, cold, wet, or windy it might be!

Date:

Astronomy

Jan. 02, 2014 Rise Set
Actual Time 7:21 AM CST 5:42 PM CST
Civil Twilight 6:55 AM CST 6:08 PM CST
Nautical Twilight 6:26 AM CST 6:37 PM CST
Astronomical Twilight 5:57 AM CST 7:06 PM CST
Moon 8:12 AM CST (1/2) 7:30 PM CST (1/2)
Length of Visible Light 11h 12m
Length of Day
10h 21m
Waxing Crescent, 3% of the Moon is Illuminated
Jan 2
Waxing Crescent
Jan 7
First Quarter
Jan 15
Full
Jan 23
Last Quarter
Jan 30
New

Hourly Weather History & Observations

Time (CST) Temp. Windchill Dew Point Humidity Pressure Visibility Wind Dir Wind Speed Gust Speed Precip Events Conditions
12:51 AM 60.1 °F - 55.0 °F 83% 30.08 in 10.0 mi North 3.5 mph - N/A   Overcast
1:51 AM 60.1 °F - 53.1 °F 78% 30.10 in 10.0 mi North 5.8 mph - N/A   Overcast
2:40 AM 59.0 °F - 53.6 °F 82% 30.12 in 10.0 mi NNW 5.8 mph - N/A   Overcast
2:51 AM 59.0 °F - 54.0 °F 83% 30.12 in 10.0 mi NNW 6.9 mph - N/A   Mostly Cloudy
3:18 AM 57.2 °F - 53.6 °F 88% 30.13 in 10.0 mi NNW 6.9 mph - N/A   Partly Cloudy
3:51 AM 57.0 °F - 52.0 °F 83% 30.14 in 10.0 mi NNW 13.8 mph - N/A   Clear
4:09 AM 57.2 °F - 50.0 °F 77% 30.15 in 10.0 mi North 16.1 mph 24.2 mph N/A   Mostly Cloudy
4:17 AM 57.2 °F - 44.6 °F 63% 30.15 in 10.0 mi North 19.6 mph 28.8 mph N/A   Scattered Clouds
4:51 AM 53.1 °F - 37.9 °F 57% 30.18 in 10.0 mi North 18.4 mph 31.1 mph N/A   Clear
5:51 AM 48.0 °F - 34.0 °F 58% 30.20 in 10.0 mi North 24.2 mph 35.7 mph N/A   Clear
6:51 AM 44.1 °F 36.5 °F 30.9 °F 60% 30.24 in 10.0 mi North 17.3 mph 32.2 mph N/A   Clear
7:51 AM 42.1 °F 32.8 °F 28.9 °F 60% 30.29 in 10.0 mi North 21.9 mph 29.9 mph N/A   Clear
8:51 AM 42.1 °F 32.3 °F 28.0 °F 58% 30.32 in 10.0 mi North 24.2 mph 32.2 mph N/A   Clear
9:51 AM 44.1 °F 35.2 °F 28.0 °F 53% 30.35 in 10.0 mi North 23.0 mph 32.2 mph N/A   Clear
10:51 AM 46.9 °F - 28.0 °F 48% 30.37 in 10.0 mi North 25.3 mph 33.4 mph N/A   Clear
11:51 AM 48.9 °F - 28.0 °F 44% 30.36 in 10.0 mi North 23.0 mph 29.9 mph N/A   Clear
12:51 PM 52.0 °F - 28.9 °F 41% 30.35 in 10.0 mi North 20.7 mph 27.6 mph N/A   Clear
1:51 PM 53.1 °F - 28.0 °F 38% 30.35 in 10.0 mi North 18.4 mph 28.8 mph N/A   Clear
2:51 PM 54.0 °F - 27.0 °F 35% 30.35 in 10.0 mi North 17.3 mph 26.5 mph N/A   Clear
3:51 PM 53.1 °F - 26.1 °F 35% 30.37 in 10.0 mi NNW 16.1 mph 24.2 mph N/A   Clear
4:51 PM 51.1 °F - 25.0 °F 36% 30.39 in 10.0 mi North 12.7 mph 20.7 mph N/A   Clear
5:51 PM 48.0 °F - 26.1 °F 42% 30.40 in 10.0 mi North 9.2 mph - N/A   Clear
6:51 PM 46.0 °F 41.4 °F 25.0 °F 44% 30.41 in 10.0 mi North 9.2 mph - N/A   Clear
7:51 PM 44.1 °F 39.5 °F 25.0 °F 47% 30.42 in 10.0 mi North 8.1 mph - N/A   Clear
8:51 PM 43.0 °F 38.8 °F 25.0 °F 49% 30.44 in 10.0 mi North 6.9 mph - N/A   Clear
9:51 PM 41.0 °F 37.1 °F 24.1 °F 51% 30.46 in 10.0 mi North 5.8 mph - N/A   Clear
10:51 PM 37.9 °F 33.5 °F 25.0 °F 60% 30.47 in 10.0 mi North 5.8 mph - N/A   Clear
11:51 PM 36.0 °F 29.6 °F 25.0 °F 64% 30.46 in 10.0 mi North 8.1 mph - N/A   Clear